sat.trackr.live / text

‹ back to catalog

YAOGAN-17 01B

NORAD 39240 · 2013-046B

PAYLOAD ACTIVE UNKNOWN

§ Identity

Operator
Country
PRC
Launch date
2013-09-01
Launch site
JSC
Launch vehicle
Mass (kg)
RCS (m²)
2.64

External: N2YO · Heavens-Above · Gunter

§ Orbital elements

Epoch: 2026-09-20T04:25:59.605824Z

Period
107.02 min
Inclination
63.3852°
Eccentricity
0.0434789
Mean motion
13.45480967 rev/d
Perigee alt
764.3 km
Apogee alt
1,413.6 km
Semi-major
7,467.1 km
B*
1.1888e-4
RAAN
205.8105°
Arg perigee
11.8566°
Mean anomaly
349.2309°
Rev number
64,111

§ Raw data

YAOGAN-17 01B1 39240U 13046B   26263.18471766  .00000034  00000+0  11888-3 0  99962 39240  63.3852 205.8105 0434789  11.8566 349.2309 13.45480967641110

JSON: /api/v1/satellites/39240 · /tle

For live sub-satellite position, see the globe view (requires WebGL).

§ Visibility from observer

Set your observer location to see the next 7 days of passes ≥ 10°. The values pass through the URL so the page stays shareable.

No JS? Fill the form by hand. The geolocation button needs JavaScript.